Flag for USA

Past Weather in 34°09'19.2"N, 118°28'47.0"W, USA — Yesterday and Last 2 Weeks

Now
62 °F

Clear.


Feels Like: 62 °F
Forecast: 75 / 60 °F
Wind: No wind

Location: Los Angeles / USC Campus Downtown

Current Time: May 31, 2020 at 1:13:39 am

Latest Report: May 31, 2020 at 12:52 am


Visibility: 10 mi

Pressure: 29.92 "Hg

Humidity: 78%

Dew Point: 55 °F

Location of 34°09'19.2"N, 118°28'47.0"WLocation

Past Weather in 34°09'19.2"N, 118°28'47.0"W — Graph

°F

34°09'19.2"N, 118°28'47.0"W Temperature Yesterday

Maximum temperature yesterday: 74 °F (at 12:52 pm)
Minimum temperature yesterday: 61 °F (at 6:00 am)
Average temperature yesterday: 67 °F

High & Low Weather Summary for the Past Weeks

 TemperatureHumidityPressure
High82 °F (May 16, 12:52 pm)90% (May 26, 3:08 am)30.06 "Hg (May 26, 3:08 am)
Low58 °F (May 19, 4:52 am)31% (May 19, 1:52 pm)29.81 "Hg (May 16, 4:52 pm)
Average67 °F66%29.92 "Hg
* Reported May 15 11:52 pm — May 30 11:52 pm, 34°09'19.2"N, 118°28'47.0"W. Weather by CustomWeather, © 2020

Note: Actual official high and low records may vary slightly from our data, if they occured in-between our weather recording intervals... More about our weather records

34°09'19.2"N, 118°28'47.0"W Weather History for the Previous 24 Hours

Scroll right to see more
 ConditionsComfort  
Time TempWeatherWind HumidityBarometerVisibility
11:52 pm
Sat, May 30
62 °FClear.No wind78%29.92 "Hg10 mi
10:52 pm63 °FClear.No wind78%29.93 "Hg10 mi
9:52 pm64 °FClear.3 mph78%29.93 "Hg10 mi
8:52 pm64 °FClear.6 mph78%29.93 "Hg10 mi
7:52 pm66 °FSunny.7 mph70%29.92 "Hg10 mi
6:52 pm68 °FSunny.6 mph68%29.92 "Hg10 mi
5:52 pm67 °FSunny.7 mph68%29.93 "Hg10 mi
4:52 pm70 °FSunny.10 mph57%29.93 "Hg10 mi
3:52 pm71 °FSunny.13 mph55%29.95 "Hg10 mi
2:52 pm72 °FSunny.10 mph53%29.95 "Hg10 mi
1:52 pm74 °FSunny.5 mph50%29.94 "Hg10 mi
12:52 pm74 °FSunny.6 mph50%29.95 "Hg10 mi
11:52 am73 °FSunny.No wind51%29.97 "Hg10 mi
10:52 am70 °FScattered clouds.No wind59%29.98 "Hg10 mi
10:13 am70 °FPartly sunny.3 mph59%29.99 "Hg10 mi
9:57 am69 °FPartly sunny.No wind61%29.99 "Hg10 mi
9:09 am67 °FScattered clouds.No wind66%29.99 "Hg10 mi
8:52 am66 °FOvercast.No wind65%29.98 "Hg10 mi
7:52 am65 °FPartly sunny.No wind68%29.99 "Hg10 mi
6:52 am62 °FPartly sunny.No wind75%29.98 "Hg10 mi
6:00 am61 °FPartly sunny.No wind81%29.97 "Hg10 mi
4:52 am62 °FPassing clouds.No wind78%29.96 "Hg10 mi
4:03 am63 °FOvercast.5 mph75%29.97 "Hg10 mi
3:52 am63 °FOvercast.3 mph75%29.96 "Hg10 mi
2:52 am63 °FOvercast.No wind75%29.98 "Hg10 mi
1:52 am64 °FOvercast.No wind70%29.97 "Hg10 mi
Weather by CustomWeather, © 2020

See weather overview

Advertising